GW2468 Weather Reports


Display with metric or nautical units.
time (UTC)temp
F
wind
direction
speed
MPH
gust
MPH
rain 1hr
in
rain 24hr
in
rain mn
in
humidity
%
barometer
mb
20260505003853 61 209 3.0 5.0 0.00 0.00 0.00 54 1010.0
20260505003350 61 214 1.0 1.0 0.00 0.00 0.00 54 1009.9
20260505002846 62 214 0.0 0.0 0.00 0.00 0.00 53 1009.8
20260505002343 62 178 2.0 2.0 0.00 0.00 0.00 53 1009.8
20260505001841 63 218 2.0 2.0 0.00 0.00 0.00 51 1009.8
20260505001338 63 214 3.0 3.0 0.00 0.00 0.00 51 1009.7
20260505000835 63 245 2.0 2.0 0.00 0.00 0.00 51 1009.9
20260505000333 63 207 2.0 2.0 0.00 0.00 0.00 50 1009.7
20260504235829 63 213 1.0 1.0 0.00 0.00 0.00 51 1009.7
20260504235327 63 217 1.0 2.0 0.00 0.00 0.00 51 1009.8
20260504234823 64 256 2.0 2.0 0.00 0.00 0.00 50 1009.2
20260504234321 63 274 4.0 5.0 0.00 0.00 0.00 50 1009.4
20260504233817 63 223 1.0 2.0 0.00 0.00 0.00 51 1009.5
20260504233313 64 248 1.0 2.0 0.00 0.00 0.00 50 1009.4
20260504232810 64 220 3.0 5.0 0.00 0.00 0.00 49 1009.2
20260504232307 64 225 1.0 1.0 0.00 0.00 0.00 48 1009.2
20260504231804 65 230 1.0 2.0 0.00 0.00 0.00 47 1009.2
20260504231300 65 243 3.0 3.0 0.00 0.00 0.00 48 1009.2
20260504230756 65 231 1.0 1.0 0.00 0.00 0.00 46 1009.0
20260504230254 65 227 1.0 1.0 0.00 0.00 0.00 47 1008.8
20260504225753 65 231 1.0 2.0 0.00 0.00 0.00 46 1008.8
20260504225249 65 235 3.0 3.0 0.00 0.00 0.00 46 1008.8
20260504224746 66 215 4.0 5.0 0.00 0.00 0.00 46 1008.8
20260504224243 66 126 3.0 3.0 0.00 0.00 0.00 46 1008.8
20260504223740 66 190 3.0 5.0 0.00 0.00 0.00 45 1008.7
20260504223235 66 229 3.0 3.0 0.00 0.00 0.00 46 1008.8
20260504222733 66 234 3.0 3.0 0.00 0.00 0.00 45 1009.0
20260504222229 67 219 2.0 3.0 0.00 0.00 0.00 44 1008.8
20260504221727 66 223 1.0 1.0 0.00 0.00 0.00 45 1008.7
20260504221224 66 249 2.0 2.0 0.00 0.00 0.00 46 1008.8
20260504220720 67 254 2.0 2.0 0.00 0.00 0.00 44 1008.9
20260504220218 67 230 2.0 2.0 0.00 0.00 0.00 44 1008.8
20260504215714 68 248 2.0 2.0 0.00 0.00 0.00 43 1008.9
20260504215212 68 279 5.0 6.0 0.00 0.00 0.00 42 1009.1
20260504214707 68 265 3.0 3.0 0.00 0.00 0.00 40 1008.8
20260504214204 68 248 1.0 2.0 0.00 0.00 0.00 41 1008.9
20260504213701 67 249 3.0 3.0 0.00 0.00 0.00 41 1009.0
20260504213157 69 335 1.0 2.0 0.00 0.00 0.00 40 1008.7
20260504212654 69 306 1.0 1.0 0.00 0.00 0.00 40 1009.2
20260504212150 69 319 2.0 2.0 0.00 0.00 0.00 40 1009.2
20260504211648 69 285 2.0 2.0 0.00 0.00 0.00 39 1009.1
20260504211144 70 257 3.0 3.0 0.00 0.00 0.00 39 1009.1
20260504210642 70 253 2.0 2.0 0.00 0.00 0.00 39 1008.9
20260504210138 70 261 2.0 2.0 0.00 0.00 0.00 38 1009.0
20260504205636 70 265 1.0 2.0 0.00 0.00 0.00 39 1009.1
20260504205133 70 272 3.0 3.0 0.00 0.00 0.00 40 1009.4
20260504204631 70 266 2.0 2.0 0.00 0.00 0.00 39 1009.2
20260504204130 70 254 2.0 2.0 0.00 0.00 0.00 39 1009.4
20260504203628 69 160 3.0 6.0 0.00 0.00 0.00 39 1009.1
20260504203125 68 250 1.0 1.0 0.00 0.00 0.00 41 1009.4
20260504202620 67 342 3.0 3.0 0.00 0.00 0.00 42 1009.2
20260504202117 69 253 3.0 5.0 0.00 0.00 0.00 41 1009.4
20260504201614 69 316 1.0 1.0 0.00 0.00 0.00 39 1009.1
20260504201112 70 199 3.0 3.0 0.00 0.00 0.00 39 1009.5
20260504200609 70 256 2.0 3.0 0.00 0.00 0.00 40 1009.5
20260504200105 69 357 2.0 2.0 0.00 0.00 0.00 40 1009.5
20260504195601 68 134 1.0 1.0 0.00 0.00 0.00 40 1009.6
20260504195057 69 193 4.0 5.0 0.00 0.00 0.00 39 1009.7
20260504194554 69 256 2.0 5.0 0.00 0.00 0.00 40 1009.6
20260504194050 68 222 1.0 2.0 0.00 0.00 0.00 39 1009.6
20260504193547 67 222 0.0 0.0 0.00 0.00 0.00 42 1009.7
20260504193045 67 189 3.0 3.0 0.00 0.00 0.00 41 1009.7
20260504192543 68 313 3.0 3.0 0.00 0.00 0.00 41 1009.8
20260504192041 68 257 1.0 2.0 0.00 0.00 0.00 40 1009.8
20260504191538 68 312 2.0 2.0 0.00 0.00 0.00 40 1009.8
20260504191034 67 231 2.0 2.0 0.00 0.00 0.00 39 1009.7
20260504190531 68 209 4.0 6.0 0.00 0.00 0.00 40 1009.8
20260504190027 68 266 5.0 6.0 0.00 0.00 0.00 40 1009.9
20260504185524 68 219 4.0 5.0 0.00 0.00 0.00 39 1009.9
20260504185021 69 267 1.0 2.0 0.00 0.00 0.00 40 1009.7
20260504184516 68 229 2.0 3.0 0.00 0.00 0.00 39 1010.0
20260504184012 68 197 3.0 5.0 0.00 0.00 0.00 39 1009.9
20260504183509 67 191 2.0 2.0 0.00 0.00 0.00 40 1010.1
20260504183008 67 174 5.0 7.0 0.00 0.00 0.00 41 1010.1
20260504182504 66 253 2.0 2.0 0.00 0.00 0.00 41 1010.1
20260504182001 66 224 3.0 5.0 0.00 0.00 0.00 41 1010.2
20260504181458 66 266 3.0 5.0 0.00 0.00 0.00 40 1010.3
20260504180956 65 241 1.0 1.0 0.00 0.00 0.00 41 1010.2
20260504180455 66 275 3.0 3.0 0.00 0.00 0.00 41 1010.2
20260504175953 68 339 3.0 3.0 0.00 0.00 0.00 39 1010.3
20260504175450 67 200 3.0 3.0 0.00 0.00 0.00 39 1010.6
20260504174947 67 245 2.0 2.0 0.00 0.00 0.00 39 1010.6
20260504174445 68 222 2.0 2.0 0.00 0.00 0.00 40 1010.7
20260504173942 69 177 6.0 7.0 0.00 0.00 0.00 37 1010.5
20260504173438 68 329 4.0 6.0 0.00 0.00 0.00 38 1010.8
20260504172936 68 300 1.0 1.0 0.00 0.00 0.00 38 1010.6
20260504172432 67 252 2.0 2.0 0.00 0.00 0.00 38 1010.7
20260504171929 67 250 2.0 2.0 0.00 0.00 0.00 38 1010.7
20260504171426 67 190 3.0 5.0 0.00 0.00 0.00 38 1010.7
20260504170923 66 230 5.0 6.0 0.00 0.00 0.00 39 1010.8
20260504170419 65 227 3.0 3.0 0.00 0.00 0.00 39 1010.9
20260504160338 64 256 2.0 3.0 0.00 0.00 0.00 41 1011.4
20260504150803 62 227 1.0 1.0 0.00 0.00 0.00 44 1012.1
20260504150259 62 222 2.0 2.0 0.00 0.00 0.00 43 1012.3
20260504141229 59 281 3.0 3.0 0.00 0.00 0.00 44 1012.5
20260504140726 59 240 3.0 3.0 0.00 0.00 0.00 47 1012.5
20260504140221 59 198 4.0 6.0 0.00 0.00 0.00 45 1012.7
20260504130650 57 286 3.0 3.0 0.00 0.00 0.00 48 1013.1
20260504130146 57 282 2.0 3.0 0.00 0.00 0.00 47 1013.0
20260504120110 51 291 2.0 2.0 0.00 0.00 0.00 54 1013.0
20260504110538 44 342 0.0 0.0 0.00 0.00 0.00 71 1013.1
20260504100454 42 346 0.0 0.0 0.00 0.00 0.00 72 1012.8
20260504081847 39 346 0.0 0.0 0.00 0.00 0.00 75 1012.8
20260504081343 40 346 0.0 0.0 0.00 0.00 0.00 75 1013.2
20260504080839 40 346 0.0 0.0 0.00 0.00 0.00 74 1013.1
20260504080337 40 346 0.0 0.0 0.00 0.00 0.00 74 1013.0
20260504070304 41 346 0.0 0.0 0.00 0.00 0.00 73 1012.8
20260504060224 41 340 0.0 0.0 0.00 0.00 0.00 73 1012.8
20260504050652 42 340 0.0 0.0 0.00 0.00 0.00 68 1012.6
20260504050149 42 340 0.0 0.0 0.00 0.00 0.00 68 1012.6
20260504045646 43 340 0.0 0.0 0.00 0.00 0.00 67 1012.8
20260504045146 43 340 0.0 0.0 0.00 0.00 0.00 67 1012.8
20260504044644 43 340 0.0 0.0 0.00 0.00 0.00 65 1012.7
20260504044141 43 340 0.0 0.0 0.00 0.00 0.00 66 1012.9
20260504043638 44 340 0.0 0.0 0.00 0.00 0.00 65 1012.7
20260504043135 43 346 0.0 0.0 0.00 0.00 0.00 65 1012.5
20260504042632 43 346 0.0 0.0 0.00 0.00 0.00 65 1012.7
20260504042129 43 346 0.0 0.0 0.00 0.00 0.00 66 1012.8
20260504041625 43 346 0.0 0.0 0.00 0.00 0.00 66 1012.8
20260504041121 43 346 0.0 0.0 0.00 0.00 0.00 65 1012.4
20260504040619 42 346 0.0 0.0 0.00 0.00 0.00 67 1012.5
20260504040115 42 346 0.0 1.0 0.00 0.00 0.00 67 1012.5
20260504035612 42 346 0.0 0.0 0.00 0.00 0.00 68 1012.3
20260504035108 42 346 0.0 0.0 0.00 0.00 0.00 67 1012.3
20260504034607 42 346 0.0 0.0 0.00 0.00 0.00 67 1012.3
20260504034103 42 346 0.0 0.0 0.00 0.00 0.00 66 1012.3
20260504033601 42 346 0.0 0.0 0.00 0.00 0.00 66 1012.4
20260504033058 42 346 0.0 0.0 0.00 0.00 0.00 67 1012.4
20260504032555 42 346 0.0 0.0 0.00 0.00 0.00 66 1012.5
20260504032052 42 346 0.0 0.0 0.00 0.00 0.00 68 1012.4
20260504031549 42 346 0.0 0.0 0.00 0.00 0.00 67 1012.4
20260504031045 43 346 0.0 0.0 0.00 0.00 0.00 67 1012.4
20260504030542 43 346 0.0 0.0 0.00 0.00 0.00 67 1012.5
20260504030038 43 346 0.0 0.0 0.00 0.00 0.00 67 1012.4
20260504025536 43 346 0.0 0.0 0.00 0.00 0.00 69 1012.6
20260504025032 43 346 0.0 0.0 0.00 0.00 0.00 69 1012.3
20260504024529 43 346 0.0 0.0 0.00 0.00 0.00 67 1012.5
20260504024026 44 346 0.0 0.0 0.00 0.00 0.00 67 1012.4
20260504023523 44 346 0.0 0.0 0.00 0.00 0.00 66 1012.7
20260504023019 44 346 0.0 0.0 0.00 0.00 0.00 64 1012.5
20260504022514 44 346 0.0 0.0 0.00 0.00 0.00 65 1012.6
20260504022011 44 346 0.0 0.0 0.00 0.00 0.00 63 1012.5
20260504021509 44 346 0.0 0.0 0.00 0.00 0.00 63 1012.4
20260504021006 44 346 0.0 0.0 0.00 0.00 0.00 64 1012.6
20260504020503 44 347 0.0 0.0 0.00 0.00 0.00 64 1012.5
20260504015959 44 346 0.0 0.0 0.00 0.00 0.00 64 1012.5
20260504015455 44 342 0.0 1.0 0.00 0.00 0.00 66 1012.6
20260504014951 44 341 0.0 0.0 0.00 0.00 0.00 67 1012.7
20260504014447 44 342 0.0 0.0 0.00 0.00 0.00 67 1012.4
20260504013944 44 342 0.0 0.0 0.00 0.00 0.00 67 1012.3
20260504013443 44 342 0.0 0.0 0.00 0.00 0.00 67 1012.1
20260504012938 44 343 0.0 0.0 0.00 0.00 0.00 63 1012.3
20260504012437 45 343 0.0 0.0 0.00 0.00 0.00 65 1012.2
20260504011934 45 342 0.0 0.0 0.00 0.00 0.00 62 1012.4
20260504011431 46 343 0.0 0.0 0.00 0.00 0.00 59 1012.1
20260504010927 46 343 0.0 0.0 0.00 0.00 0.00 59 1012.1
20260504010423 46 343 0.0 0.0 0.00 0.00 0.00 57 1012.2
20260504005919 47 343 0.0 0.0 0.00 0.00 0.00 58 1012.2
20260504005416 47 343 0.0 0.0 0.00 0.00 0.00 57 1012.2
20260504004913 47 343 0.0 0.0 0.00 0.00 0.00 56 1012.0
20260504004411 47 343 0.0 0.0 0.00 0.00 0.00 57 1012.1